[[{"header":{"parameterUnit":"m.s-1","parameterCategory":1,"la1":30.2991,"la2":30.254,"lo1":-89.0895,"lo2":-89.0444,"dy":0.0017,"dx":0.0017,"nx":28,"ny":28,"refTime":"2025-06-22T09:00:00:Z","depth":0,"parameterNumber":2,"parameterNumberName":"U-component_of_WINDS"},"data":[0,0,0,0,0,0,0,0,0,0,0,0,0,0,0,0,0,0,0,0,0,0,0,0,0,0,0,0,0,0,0,0,0,0,0,0,0,0,0,0,0,0,0,0,0,0,0,0,0,0,0,0,0,0,0,0,0,0,-2.5043,-2.5042,0,-2.5003,-2.5003,-2.5002,-2.4913,-2.4911,-2.4909,-2.4907,-2.4868,-2.4869,-2.487,0,0,0,0,0,0,0,0,0,0,0,0,0,-2.5042,-2.5043,-2.5043,-2.5042,-2.5042,-2.5003,-2.5003,-2.5002,-2.4913,-2.4911,-2.4909,-2.4907,-2.4868,-2.4869,-2.487,0,0,0,0,0,0,0,0,0,0,0,0,0,-2.5027,-2.5043,-2.5043,-2.4993,-2.4988,-2.5003,-2.5003,-2.5002,-2.4914,-2.4911,-2.4908,-2.4906,-2.4868,-2.4869,-2.487,-2.4931,0,0,-2.4873,-2.4873,0,0,0,0,0,0,0,0,-2.5028,-2.5027,-2.5001,-2.4996,-2.4991,-2.496,-2.4988,-2.4978,-2.4914,-2.4942,-2.4907,-2.4904,-2.4901,-2.4899,-2.4898,-2.4929,-2.4928,-2.4873,-2.4874,-2.4874,-2.4874,0,0,0,0,0,0,0,-2.5029,-2.5028,-2.5027,-2.5,-2.4994,-2.4972,-2.4967,-2.4986,-2.4938,-2.4939,-2.4933,-2.4929,-2.4898,-2.4897,-2.4896,-2.4927,-2.4873,-2.4874,-2.4874,-2.4875,-2.5005,-2.5008,0,0,0,0,0,0,-2.5037,-2.5029,-2.5028,-2.5026,-2.5003,-2.4975,-2.4969,-2.4973,-2.4937,-2.4929,-2.4932,-2.4925,-2.4897,-2.4895,-2.4895,-2.4963,-2.4874,-2.4875,-2.4875,-2.5002,-2.5006,-2.5009,0,0,0,0,0,0,-2.5037,-2.5038,-2.503,-2.5026,-2.5023,-2.4978,-2.4983,-2.4973,-2.4972,-2.4931,-2.4922,-2.494,-2.4895,-2.4893,-2.4922,-2.496,-2.4875,-2.4876,-2.4999,-2.5003,-2.5007,-2.5101,0,0,0,0,0,0,-2.5038,-2.5038,-2.5061,-2.5027,-2.5024,-2.5058,-2.4985,-2.4975,-2.4974,-2.4965,-2.4936,-2.4929,-2.4892,-2.4921,-2.4923,-2.496,-2.4877,-2.4995,-2.5001,-2.5006,-2.5094,-2.5108,-2.5119,0,0,0,0,0,-2.5038,-2.509,-2.5063,-2.5063,-2.5051,-2.5061,-2.5059,-2.5015,-2.4978,-2.5,-2.4973,-2.493,-2.4956,-2.4925,-2.4926,-2.4964,-2.4993,-2.4999,-2.5005,-2.5088,-2.5105,-2.5119,0,0,0,0,0,0,-2.513,-2.5084,-2.5054,-2.5096,-2.5083,-2.5046,-2.5073,-2.5035,-2.5032,-2.5024,-2.4971,-2.4965,-2.5001,-2.4985,-2.4952,-2.5021,-2.4967,-2.4974,-2.503,-2.5045,-2.5058,-2.506,-2.4878,0,0,0,0,0,-2.5156,-2.5167,-2.5126,-2.5167,-2.5162,-2.5119,-2.5121,-2.5089,-2.5073,-2.5067,-2.5043,-2.503,-2.5034,-2.5039,-2.5041,-2.5091,-2.5083,-2.5118,-2.5131,-2.5141,-2.5148,-2.5172,-2.5187,-2.503,-2.503,-2.503,0,0,-2.5208,-2.5184,-2.5195,-2.5185,-2.5171,-2.5184,-2.5115,-2.5132,-2.5141,-2.507,-2.5095,-2.5077,-2.5059,-2.5098,-2.5114,-2.5086,-2.5189,-2.515,-2.5158,-2.5159,-2.518,-2.5195,-2.5208,-2.5034,-2.5033,-2.5033,0,0,-2.531,-2.5293,-2.5325,-2.5312,-2.5291,-2.5262,-2.527,-2.5238,-2.5223,-2.5247,-2.5194,-2.5204,-2.5214,-2.5203,-2.5199,-2.5295,-2.5254,-2.5298,-2.5364,-2.5388,-2.54,-2.5411,-2.5444,-2.5457,-2.5304,-2.5305,-2.5305,0,-2.5378,-2.5394,-2.5346,-2.5366,-2.5363,-2.5299,-2.5331,-2.5321,-2.5302,-2.5302,-2.5271,-2.5281,-2.5264,-2.5299,-2.5323,-2.5322,-2.5329,-2.53,-2.5402,-2.5412,-2.5421,-2.5453,-2.5465,-2.531,-2.5309,-2.5309,-2.5308,0,-2.5478,-2.5491,-2.5519,-2.5502,-2.5502,-2.5528,-2.5484,-2.549,-2.5457,-2.5431,-2.5457,-2.5434,-2.543,-2.5436,-2.5405,-2.5467,-2.545,-2.5412,-2.5356,-2.5442,-2.5471,-2.5482,-2.5317,-2.5315,-2.5314,-2.5313,0,0,-2.5638,-2.5592,-2.5604,-2.5594,-2.5566,-2.5575,-2.5598,-2.5593,-2.5599,-2.5589,-2.5606,-2.5615,-2.5579,-2.5574,-2.5541,-2.5562,-2.5638,-2.552,-2.5519,-2.5542,-2.5704,-2.5733,-2.5747,-2.5611,-2.5614,-2.5615,-2.5705,0,-2.5732,-2.5768,-2.5725,-2.5769,-2.578,-2.5719,-2.5738,-2.5723,-2.57,-2.5705,-2.5679,-2.5686,-2.5638,-2.5634,-2.5652,-2.5625,-2.567,-2.5618,-2.5626,-2.5627,-2.5632,-2.5762,-2.5793,-2.5879,-2.5716,-2.5718,-2.5719,0,-2.5847,-2.5841,-2.5887,-2.5854,-2.5857,-2.5875,-2.5867,-2.5873,-2.5855,-2.5836,-2.583,-2.579,-2.5809,-2.5756,-2.5782,-2.5748,-2.5749,-2.5736,-2.5738,-2.5737,-2.5678,-2.5764,-2.5905,-2.5918,-2.5736,-2.5735,-2.5734,0,-2.5958,-2.5961,-2.5988,-2.5982,-2.5945,-2.5959,-2.5945,-2.5924,-2.5923,-2.5916,-2.5915,-2.5911,-2.5909,-2.5907,-2.5866,-2.5831,-2.5897,-2.584,-2.5881,-2.5882,-2.5897,-2.5897,-2.604,-2.59,-2.5899,-2.5899,-2.5899,0,-2.6067,-2.6097,-2.6036,-2.6053,-2.6085,-2.6035,-2.6068,-2.6047,-2.6029,-2.604,-2.5988,-2.6,-2.5946,-2.5952,-2.5921,-2.5946,-2.5946,-2.5931,-2.5922,-2.5935,-2.5937,-2.5935,-2.5927,-2.5903,-2.5902,-2.5901,-2.5901,0,-2.6196,-2.6156,-2.6182,-2.6145,-2.6136,-2.6161,-2.6129,-2.6143,-2.6115,-2.6131,-2.6131,-2.6088,-2.6093,-2.6052,-2.6049,-2.6028,-2.6068,-2.6049,-2.6074,-2.6068,-2.611,-2.6107,-2.6257,-2.6274,-2.6123,-2.6125,-2.6126,0,-2.6268,-2.6289,-2.6254,-2.6258,-2.6246,-2.6252,-2.6251,-2.6203,-2.6204,-2.6184,-2.62,-2.62,-2.6197,-2.6207,-2.6176,-2.6173,-2.6153,-2.6206,-2.6152,-2.6164,-2.6153,-2.6152,-2.6153,-2.6217,-2.6219,-2.6221,-2.6222,0,-2.64,-2.6379,-2.6379,-2.6373,-2.6373,-2.6366,-2.6355,-2.6361,-2.6308,-2.6312,-2.6315,-2.6313,-2.631,-2.631,-2.6301,-2.6286,-2.6245,-2.6239,-2.6248,-2.6261,-2.6274,-2.6267,-2.6104,-2.6236,-2.6234,-2.6233,-2.6232,-2.6232,-2.6502,-2.6517,-2.6495,-2.6496,-2.6483,-2.6474,-2.6485,-2.6458,-2.646,-2.6452,-2.6424,-2.6432,-2.6412,-2.6395,-2.6384,-2.639,-2.6364,-2.6377,-2.6381,-2.6385,-2.6392,-2.6274,-2.6388,-2.6387,-2.6387,-2.6387,-2.6386,0,-2.663,-2.6612,-2.6614,-2.66,-2.6602,-2.6563,-2.6548,-2.6552,-2.656,-2.6544,-2.6542,-2.6546,-2.6545,-2.6514,-2.6509,-2.652,-2.6501,-2.652,-2.6519,-2.6516,-2.6416,-2.6408,-2.6536,-2.6536,-2.6536,-2.6535,-2.6535,-2.6535,-2.6697,-2.6721,-2.6697,-2.6714,-2.6696,-2.6703,-2.6698,-2.6689,-2.6676,-2.6682,-2.6681,-2.666,-2.6638,-2.6631,-2.6629,-2.662,-2.662,-2.6646,-2.663,-2.6537,-2.6523,-2.6509,-2.6501,-2.6647,-2.6647,-2.673,-2.673,-2.6731]},{"header":{"parameterUnit":"m.s-1","parameterCategory":1,"la1":30.2991,"la2":30.254,"lo1":-89.0895,"lo2":-89.0444,"dy":0.0017,"dx":0.0017,"nx":28,"ny":28,"refTime":"2025-06-22T09:00:00:Z","depth":0,"parameterNumber":3,"parameterNumberName":"V-component_of_WINDS"},"data":[0,0,0,0,0,0,0,0,0,0,0,0,0,0,0,0,0,0,0,0,0,0,0,0,0,0,0,0,0,0,0,0,0,0,0,0,0,0,0,0,0,0,0,0,0,0,0,0,0,0,0,0,0,0,0,0,0,0,-1.4777,-1.4778,0,-1.4809,-1.4809,-1.481,-1.4841,-1.4841,-1.4842,-1.4842,-1.4871,-1.4872,-1.4872,0,0,0,0,0,0,0,0,0,0,0,0,0,-1.4741,-1.4741,-1.4777,-1.4778,-1.4778,-1.4809,-1.4809,-1.481,-1.4841,-1.4841,-1.4842,-1.4842,-1.4871,-1.4872,-1.4872,0,0,0,0,0,0,0,0,0,0,0,0,0,-1.4763,-1.4742,-1.4777,-1.4798,-1.48,-1.4809,-1.4809,-1.481,-1.4841,-1.4841,-1.4842,-1.4843,-1.4871,-1.4872,-1.4872,-1.4863,0,0,-1.4874,-1.4874,0,0,0,0,0,0,0,0,-1.4762,-1.4764,-1.4794,-1.4796,-1.4799,-1.4822,-1.4807,-1.4828,-1.4841,-1.4825,-1.4842,-1.4843,-1.4854,-1.4856,-1.486,-1.4864,-1.4866,-1.4874,-1.4874,-1.4875,-1.4875,0,0,0,0,0,0,0,-1.476,-1.4763,-1.479,-1.4795,-1.4797,-1.4804,-1.4808,-1.4811,-1.4835,-1.4826,-1.4829,-1.4832,-1.4855,-1.486,-1.4861,-1.4866,-1.4874,-1.4874,-1.4875,-1.4875,-1.4862,-1.4862,0,0,0,0,0,0,-1.4756,-1.4762,-1.4789,-1.4791,-1.4781,-1.4804,-1.4808,-1.4814,-1.4836,-1.484,-1.4832,-1.4834,-1.4859,-1.4861,-1.4863,-1.4852,-1.4875,-1.4875,-1.4875,-1.4863,-1.4862,-1.4861,0,0,0,0,0,0,-1.4755,-1.4758,-1.4788,-1.4777,-1.4781,-1.4804,-1.481,-1.4814,-1.4818,-1.484,-1.4844,-1.4832,-1.4859,-1.4862,-1.4863,-1.4853,-1.4875,-1.4876,-1.4864,-1.4863,-1.4862,-1.4831,0,0,0,0,0,0,-1.4754,-1.4758,-1.4755,-1.4777,-1.4782,-1.4788,-1.4809,-1.4814,-1.482,-1.4822,-1.4841,-1.4845,-1.486,-1.4861,-1.4863,-1.4855,-1.4876,-1.4865,-1.4863,-1.4862,-1.4833,-1.4829,-1.4826,0,0,0,0,0,-1.4752,-1.4745,-1.4755,-1.4758,-1.4779,-1.4787,-1.479,-1.4809,-1.4819,-1.4816,-1.4829,-1.4844,-1.4855,-1.4861,-1.4863,-1.4855,-1.4865,-1.4864,-1.4862,-1.4835,-1.483,-1.4826,0,0,0,0,0,0,-1.472,-1.4748,-1.4759,-1.4759,-1.477,-1.4793,-1.4789,-1.4803,-1.4812,-1.4814,-1.4836,-1.4839,-1.4837,-1.4847,-1.4853,-1.4847,-1.4862,-1.4861,-1.484,-1.4836,-1.4833,-1.4829,-1.4877,0,0,0,0,0,-1.4714,-1.4719,-1.4742,-1.4739,-1.4745,-1.4766,-1.477,-1.4784,-1.4796,-1.4801,-1.4815,-1.4826,-1.4831,-1.4835,-1.4841,-1.4835,-1.4839,-1.483,-1.4827,-1.4824,-1.4822,-1.4818,-1.4814,-1.4856,-1.4856,-1.4857,0,0,-1.4699,-1.4714,-1.4716,-1.4733,-1.4744,-1.4748,-1.477,-1.4773,-1.4776,-1.4801,-1.4803,-1.4813,-1.4827,-1.4824,-1.4823,-1.4831,-1.4811,-1.4822,-1.4819,-1.4819,-1.4816,-1.4812,-1.4808,-1.4855,-1.4856,-1.4856,0,0,-1.4673,-1.4687,-1.4685,-1.4696,-1.4712,-1.4726,-1.4726,-1.4746,-1.4754,-1.4756,-1.4775,-1.4778,-1.4788,-1.4796,-1.4802,-1.478,-1.4793,-1.4781,-1.4762,-1.4758,-1.4755,-1.4752,-1.4742,-1.4739,-1.478,-1.478,-1.478,0,-1.4652,-1.466,-1.4682,-1.4684,-1.469,-1.4715,-1.4713,-1.4722,-1.4739,-1.4742,-1.4751,-1.4764,-1.4775,-1.4773,-1.4768,-1.4772,-1.4771,-1.4778,-1.4754,-1.4751,-1.4749,-1.4739,-1.4736,-1.4778,-1.4778,-1.4779,-1.4779,0,-1.4633,-1.4638,-1.4634,-1.4651,-1.4657,-1.4657,-1.4678,-1.4681,-1.4694,-1.4707,-1.4708,-1.4722,-1.4731,-1.4733,-1.4745,-1.4733,-1.4737,-1.475,-1.4765,-1.4742,-1.4734,-1.4731,-1.4776,-1.4776,-1.4777,-1.4777,0,0,-1.4586,-1.4616,-1.4614,-1.4622,-1.4642,-1.4645,-1.4646,-1.4656,-1.4658,-1.4669,-1.4669,-1.4677,-1.4688,-1.4695,-1.4708,-1.4705,-1.4685,-1.4718,-1.4719,-1.471,-1.467,-1.4658,-1.4654,-1.4695,-1.4694,-1.4694,-1.4668,0,-1.4563,-1.4566,-1.4586,-1.4583,-1.4587,-1.4611,-1.4611,-1.4623,-1.4635,-1.4639,-1.4652,-1.4657,-1.4673,-1.4677,-1.4675,-1.4688,-1.4677,-1.469,-1.4692,-1.4692,-1.4686,-1.465,-1.4638,-1.4614,-1.4665,-1.4665,-1.4664,0,-1.4536,-1.4546,-1.4543,-1.4563,-1.4565,-1.4565,-1.4575,-1.458,-1.4593,-1.4602,-1.4609,-1.4625,-1.4626,-1.4642,-1.4642,-1.4651,-1.4653,-1.466,-1.4659,-1.4658,-1.4675,-1.4646,-1.4606,-1.4602,-1.466,-1.466,-1.4661,0,-1.45,-1.4513,-1.4513,-1.4519,-1.4542,-1.4541,-1.4551,-1.4565,-1.457,-1.4579,-1.4581,-1.459,-1.4594,-1.46,-1.4617,-1.4628,-1.4614,-1.4633,-1.462,-1.462,-1.4615,-1.4614,-1.4572,-1.462,-1.462,-1.462,-1.462,0,-1.447,-1.4467,-1.4497,-1.4497,-1.4494,-1.4517,-1.4512,-1.4524,-1.4537,-1.4538,-1.4559,-1.456,-1.4584,-1.4587,-1.46,-1.4597,-1.4599,-1.4605,-1.4609,-1.4602,-1.4601,-1.4602,-1.4604,-1.4619,-1.4619,-1.4619,-1.4619,0,-1.4428,-1.4449,-1.445,-1.4472,-1.4478,-1.4474,-1.4493,-1.4493,-1.4507,-1.4508,-1.451,-1.4531,-1.4535,-1.4554,-1.4563,-1.4572,-1.4563,-1.4571,-1.4559,-1.456,-1.4546,-1.4546,-1.4502,-1.4496,-1.4549,-1.4549,-1.4548,0,-1.4407,-1.4405,-1.4428,-1.4431,-1.444,-1.4444,-1.4449,-1.4472,-1.4475,-1.4491,-1.4488,-1.4495,-1.4501,-1.4507,-1.4522,-1.4529,-1.4535,-1.452,-1.4536,-1.453,-1.4533,-1.4531,-1.453,-1.4515,-1.4514,-1.4514,-1.4513,0,-1.4366,-1.4376,-1.4383,-1.4393,-1.4399,-1.4408,-1.4418,-1.4419,-1.4444,-1.4447,-1.4452,-1.4457,-1.4466,-1.4472,-1.4481,-1.449,-1.4504,-1.4508,-1.4505,-1.4497,-1.4489,-1.4491,-1.4546,-1.4508,-1.4509,-1.4509,-1.451,-1.451,-1.4333,-1.4332,-1.4347,-1.4354,-1.4364,-1.4373,-1.4373,-1.4388,-1.4393,-1.4403,-1.4416,-1.4419,-1.4432,-1.4446,-1.4454,-1.4456,-1.4464,-1.4461,-1.4459,-1.4457,-1.4453,-1.4491,-1.4458,-1.4458,-1.4458,-1.4458,-1.4458,0,-1.4291,-1.4302,-1.4308,-1.4322,-1.4327,-1.4343,-1.4355,-1.4357,-1.436,-1.4371,-1.4377,-1.4383,-1.4388,-1.4405,-1.4411,-1.441,-1.4417,-1.441,-1.4409,-1.4411,-1.4446,-1.4447,-1.4405,-1.4405,-1.4405,-1.4405,-1.4405,-1.4405,-1.4269,-1.4268,-1.428,-1.4284,-1.4295,-1.4299,-1.4304,-1.4312,-1.4321,-1.4327,-1.4332,-1.4343,-1.4356,-1.4364,-1.4369,-1.4374,-1.4374,-1.4365,-1.4371,-1.4403,-1.4408,-1.4413,-1.4414,-1.4365,-1.4365,-1.4335,-1.4335,-1.4335]}]]